CAPE
1984 1867 1890 1937 1990 2441 2501 2631 2808 2270 2052 2409 2248 2168 2591 2305 2262 2302 2254 1983 1762 1634 1689 2011 1668 1640 1377 1359 1300 1047 920 1206 1281 1806 2024 2084 1498 2870 3443 3206 3264 3239 3057 2945 2884 2757 2380 2302 2174 2035 1864 2192 1927 1755 1862 1748 1634 1391 1515 1663 1729 1708 1666 1568 1433 1495 1451 1451 1424 1304 1252 1485 1371 1283 1271 1250 1141 1119 1048 1006 1037 1098 1143 1144 1341
1899 1829 1944 1869 1923 2421 2516 2538 2092 1490 1767 2038 2224 2620 2674 2519 2245 2084 2008 1987 1920 1713 2523 1905 1403 1247 1166 1240 1176 1055 907 373 1301 1314 1888 1800 1339 2324 3296 3134 3172 3174 3008 2936 2756 2872 2734 2472 2366 2337 2040 1858 1915 1935 1737 1875 1766 1610 1594 1138 1772 1840 1798 1739 1581 1532 1667 1630 1398 1096 1199 1493 1443 1376 1239 1303 1246 1274 1196 1192 1163 1194 1229 1226 1365
1747 1928 1907 1762 1719 1987 1959 1678 1886 2119 2209 2404 2972 2341 2169 1961 2068 1911 1833 1904 1957 1948 1772 1515 1432 1401 1163 936 1009 938 741 92 740 1380 1549 1492 1238 1878 3339 3293 3300 3199 3043 2800 2754 2722 2640 2499 2200 1937 2247 2189 1800 1652 1837 1936 1932 1896 1665 1636 1231 1420 1850 1768 1760 1694 1717 1687 1614 1449 1414 1275 1578 1400 1332 1420 1552 1519 1456 1352 1277 1321 1333 1250 1399
1955 1986 1708 1683 1673 1811 1743 1963 2053 2335 2598 2645 2520 2282 2170 2206 2374 2222 2071 2149 2105 1779 1461 1551 1409 1107 91 685 377 225 99 56 122 1041 1584 1457 1499 1929 2827 3242 3366 3290 2989 2826 2824 2746 2595 2483 2430 2132 1881 2164 2227 1792 2028 2085 1992 1858 1923 1794 1616 1452 1503 1674 1542 1560 1684 1718 1742 1744 1722 1584 1355 1428 1591 1620 1666 1692 1640 1629 1544 1388 1386 1353 1391
2118 2215 2642 2023 2070 2168 2271 2503 2303 2351 2388 2429 2703 2780 2610 2514 2511 2665 2386 2212 1978 1692 1589 1434 1196 649 4 48 49 169 234 90 82 509 1690 1732 1812 2029 2451 3090 3096 3242 3136 2864 2511 2771 2702 2549 2510 2142 2404 2015 2075 1972 2120 2298 2243 2364 2057 1784 1898 1688 1520 1405 1286 1464 1388 1466 1711 1860 1846 1760 1711 1728 1792 1712 1785 1793 1784 1794 1761 1702 1585 1430 1442
2213 2389 2265 2281 2425 2396 2518 2602 2376 2079 1871 2638 2655 2476 2711 2147 2033 1998 2162 2166 1437 1399 1181 201 0 1 6 117 116 161 195 259 206 563 1431 1841 2026 2097 2300 2816 2759 2768 2904 3019 2694 2500 2749 2679 2600 2581 2418 2012 2103 2020 1989 2088 2126 2303 1991 2205 1572 1624 1716 1296 966 1156 1189 1418 1676 1952 1905 1879 1809 1765 1782 1817 1862 1691 1641 1605 1753 1920 1863 1812 1720
2337 2394 2234 2211 2515 2422 2397 2505 2272 2133 2444 2646 2493 2159 2186 2009 1980 1879 1674 1388 961 668 597 575 220 123 174 418 273 212 427 326 334 396 1202 1841 2129 2089 2154 2516 2458 2375 2643 2832 3056 2509 2792 2513 2519 2473 2447 2229 2401 1902 1965 1522 1887 2003 2160 2194 1870 1804 1314 1125 1349 1435 1593 1634 1536 1738 1925 1879 1832 1806 1821 1816 1772 1771 1840 1861 1862 1838 1896 1612 1529
2202 2250 2176 2199 2547 2462 2435 2326 2564 2540 2444 2379 2211 2142 2014 1842 1995 1875 1533 921 607 158 139 36 235 211 82 207 371 1062 246 328 419 363 539 1196 1852 1998 1950 2161 2121 1824 2718 2395 2615 2640 2719 2676 2497 2264 2240 2098 2165 1755 1688 1924 1730 1851 1860 1714 1568 1294 1471 1371 1338 1250 1497 1730 1738 1823 1804 1632 1910 1846 1933 1644 1782 1823 1846 1852 1818 1826 1868 1876 2089
2306 2406 2241 2315 2472 2406 2404 2454 2584 2467 2358 2258 2067 2010 1939 1792 1618 2286 1747 313 287 133 29 66 40 4 0 99 585 1051 389 361 474 302 615 845 1255 1689 1820 1933 2179 2896 2605 1728 2278 2512 2764 2899 2599 2542 2440 2318 2229 1910 1586 1610 1674 1628 1710 1648 1688 1627 1421 1402 1346 1389 1390 1518 1848 1835 1766 1782 1333 1660 1690 1818 1887 1736 1601 1856 2085 1983 1904 2017 2112
2580 2824 2571 2536 2522 2393 2378 2518 2513 2253 2101 2037 1816 1800 1764 1900 1913 1814 959 166 23 90 31 73 0 0 0 0 381 485 641 686 808 2093 191 551 804 1076 1330 1342 2698 2656 2329 1414 1485 2341 2668 2726 2806 2518 2555 2505 2476 2392 2153 2035 1483 1419 1484 1600 1577 1471 1517 1396 1391 1432 1351 1700 1696 1817 1770 1712 1552 1430 1686 1537 1721 1849 1741 1735 1620 1966 2157 2018 2057
2652 2887 2779 2856 2533 2472 2435 2474 2405 2120 1986 1719 1710 1641 1648 1901 1861 802 1261 101 15 42 225 210 0 0 5 40 4 0 14 191 2176 1414 208 300 618 1106 1062 975 935 1096 2231 1721 1367 2082 2529 2648 2596 2313 2414 2600 2450 2386 2348 1996 1768 1638 1586 1758 1613 1453 1607 1477 1568 1570 1498 1747 1720 1624 1688 1758 1880 1516 1545 1534 1551 1503 1671 1745 1765 1668 1999 2008 2052
2780 2714 2721 2814 2646 2489 2420 2266 2274 2278 1857 1708 1488 1334 1643 1597 1072 533 205 593 456 624 19 4 0 0 132 57 22 2 34 698 154 186 664 638 1644 1024 707 796 916 1211 1702 1718 1610 1954 2368 2628 2795 2338 2372 2403 2417 2367 2327 2307 1980 1789 1686 1419 1489 1573 1613 1706 1750 1556 1546 1763 1710 1595 1633 1834 1883 1893 1728 1588 1525 1778 1488 1482 1496 1481 1478 1626 1681
2787 2631 2641 3158 2783 2592 2427 2403 2434 2000 1810 1512 1305 1325 1583 676 499 1244 109 50 109 13 0 0 0 0 0 0 4 230 1388 1816 28 79 367 440 889 700 738 753 923 1245 1494 1646 1695 1771 2207 2459 2644 2579 2453 2301 2330 2170 2128 2017 1913 2010 1910 1797 1876 2017 1831 1739 1828 1815 1781 1756 1717 1692 1900 1768 1731 1760 1736 1722 1684 1708 1685 1678 1793 1716 1642 1686 1666
2699 2588 2698 2961 2796 2657 2523 2442 2375 1700 1486 1241 1096 1234 1195 392 339 114 122 1 0 1 0 0 0 0 0 1 58 0 2148 640 408 283 143 564 578 524 614 641 874 1131 1508 1658 1555 1612 1941 2300 2449 2399 2334 2193 2102 2109 1998 1905 1713 1885 1948 1945 1807 2025 1654 1648 1679 1720 1620 1728 1738 1840 1618 1474 1538 1587 1644 1725 1690 1628 1588 1651 1440 1439 1542 1632 1646
2836 2822 2868 2923 2782 2636 2544 2522 2059 1550 1446 1504 1026 754 250 376 126 22 29 535 778 578 0 0 0 2 160 33 1 0 96 0 0 0 85 414 416 426 383 338 673 1019 1358 1423 1441 1565 1708 1934 1898 1572 1681 1986 2135 2109 1943 2163 1953 1887 1818 1855 1864 1882 1943 1626 1668 1650 1758 1824 1708 1755 1722 1498 1514 1660 1513 1525 1434 1578 1573 1625 1577 1557 1632 1514 1499
2971 2934 2891 2951 2858 2675 2584 2555 1702 1434 1395 1108 95 0 0 50 8 93 0 0 0 9 1033 0 0 0 27 28 0 8 1 0 0 0 134 268 26 18 105 98 459 634 714 796 938 1177 1464 1602 1522 1534 1719 1952 1970 1918 1619 1440 2029 1832 1979 1824 1778 1765 1713 1671 1707 1697 1748 1835 1797 1534 1530 1540 1755 1858 1620 1641 1550 1526 1386 1474 1730 1587 1603 1548 1635
2963 2960 2889 2977 2925 2779 2537 2382 1488 1362 1267 557 6 0 0 0 36 38 0 0 0 0 149 158 1 0 0 11 0 0 0 0 3 0 206 44 0 4 110 267 492 494 534 599 667 762 874 1062 1314 1581 1704 1760 1612 1538 1517 1875 1533 2385 1596 1490 1336 1353 1433 1499 1373 1459 1456 1769 1889 1793 1910 1918 1949 1910 1698 1620 1503 1568 1462 1485 1622 1684 1903 1873 1753
2880 2874 2871 2921 2885 2774 2487 1913 1266 1127 1065 118 2 0 8 0 12 0 0 0 0 0 40 411 432 1088 35 0 0 0 13 0 0 0 0 12 0 0 9 234 472 506 513 543 529 504 582 648 954 1327 1481 1556 1579 1433 1381 1274 1339 1120 815 865 857 966 1085 1068 1085 1239 1132 1137 1107 1176 1094 1046 932 989 1187 1195 1249 1256 1529 1544 1757 1608 1598 1615 1548
2765 2759 2739 2871 2862 2674 2374 1373 996 998 940 109 3 0 9 0 16 0 0 123 0 6 1 5 1 175 217 36 721 261 0 0 0 0 0 0 2 0 0 0 127 132 103 94 50 0 1 72 676 1020 1344 1439 1446 1317 1264 1134 1196 727 755 657 284 247 166 216 423 864 818 770 663 630 652 588 509 455 554 574 583 731 931 1079 1094 1171 1372 1551 1678
2586 2627 2643 2768 2840 2656 1832 1214 942 893 652 17 2 0 5 46 50 0 0 16 0 0 6 53 0 2 851 41 595 252 7 0 0 0 0 0 2 0 0 0 0 0 0 0 0 0 0 1 131 673 1024 1303 1296 1230 1139 1078 1013 731 904 399 44 25 17 19 54 149 226 86 114 100 65 74 113 131 126 123 114 203 311 434 546 663 750 855 1033
2720 2770 2819 2787 2649 2356 1512 1103 555 486 888 0 0 0 2 54 7 0 0 0 0 1 2 2 0 0 3 0 0 0 0 1 8 0 0 0 0 0 0 0 0 0 0 0 0 0 0 0 0 412 660 899 1122 1133 1029 970 926 707 450 310 95 57 84 69 75 10 8 0 0 0 0 9 22 73 47 93 118 117 45 106 194 196 272 349 398
3009 2920 2909 2600 2228 1728 1400 1020 551 474 836 1 0 0 0 6 0 0 0 5 176 48 1 0 0 0 0 0 0 8 0 0 0 0 0 0 0 0 0 0 0 0 0 0 0 0 0 0 15 41 237 614 805 875 838 695 540 166 134 246 140 202 104 159 105 123 69 0 0 2 0 0 0 2 40 84 59 18 41 13 80 215 197 164 157
2951 2924 2857 2477 2080 1558 1337 1059 665 743 850 12 4 5 0 0 0 0 0 5 0 4 694 212 47 116 0 0 0 0 0 0 0 0 0 0 0 0 0 0 0 0 0 0 0 0 0 0 0 0 0 62 393 572 574 175 7 0 8 261 197 224 86 251 227 128 129 16 3 0 0 5 7 2 0 0 0 0 0 2 5 17 16 42 54
2837 2852 2563 2157 2003 1490 1304 1150 856 639 528 2 3 0 0 0 0 0 0 0 0 31 366 104 8 3 3 0 0 0 0 0 0 0 0 0 0 0 0 0 0 0 48 0 30 0 0 0 0 0 0 0 0 0 0 0 0 33 68 538 538 223 160 221 317 195 154 55 42 72 34 1 0 1 0 0 0 0 0 0 4 6 3 4 2
2861 2750 2327 2016 1838 1286 1193 1065 874 649 474 0 6 0 0 0 0 0 0 0 6 36 41 8 12 0 0 1 0 0 0 0 0 0 0 0 0 0 0 0 0 0 0 38 0 0 0 0 0 0 0 0 0 0 0 0 0 353 585 129 680 430 308 306 117 64 143 116 76 190 114 36 49 99 115 79 21 0 0 0 0 0 0 6 4
2636 2426 2077 1897 1619 1230 1086 1051 870 690 564 472 3 2 1 0 0 0 3 20 0 30 2 8 0 4 0 4 1 0 0 0 0 0 0 0 0 0 0 0 0 0 0 0 131 0 0 0 0 0 0 0 0 0 0 0 7 448 1046 49 168 428 299 265 319 222 167 186 154 202 135 17 42 236 308 197 106 70 129 95 64 32 6 0 0
2310 2018 1888 1765 1522 1364 1103 991 895 781 664 496 20 19 22 5 2 1 32 10 17 20 6 8 29 16 11 0 0 0 0 0 0 0 0 0 0 0 0 0 0 0 0 0 0 0 0 0 0 0 0 1 0 0 0 0 11 280 1133 784 0 117 185 98 83 194 185 220 264 243 274 399 292 342 311 223 99 211 240 268 244 187 142 49 42
1952 1806 1762 1674 1516 1368 1096 1051 996 833 601 170 22 20 18 14 20 4 31 149 22 38 3 0 0 0 6 0 0 0 0 0 0 0 0 0 0 0 0 0 0 0 0 0 0 0 0 0 0 0 0 1 0 0 1 2 0 306 1434 970 17 0 177 174 58 61 99 123 165 179 228 305 366 394 419 478 382 286 363 358 425 454 460 347 221
1701 1725 1726 1643 1452 1320 1127 1076 1005 886 676 336 59 29 19 43 38 24 2 156 32 21 7 0 0 0 0 0 0 0 0 14 8 2 0 0 0 0 0 0 0 0 0 0 0 0 0 0 0 0 35 142 10 0 7 4 0 201 210 707 80 0 0 92 127 60 78 106 113 126 138 168 174 225 333 395 376 403 468 424 290 267 255 188 147
1579 1632 1629 1562 1395 1329 1180 1146 1050 843 831 473 245 64 30 43 25 42 14 58 86 7 26 4 0 0 4 2 0 0 1 27 2 9 3 0 0 0 0 0 0 0 0 0 0 0 0 0 0 1 0 1 30 116 7 8 24 677 135 9 30 0 0 1 44 115 100 84 57 34 56 98 138 157 120 99 114 180 292 334 281 204 210 245 280
1506 1566 1540 1477 1381 1333 1226 1200 1045 812 808 625 262 70 49 55 50 25 26 42 32 9 2 24 4 0 0 0 0 0 0 0 0 0 3 0 0 0 0 0 0 0 0 0 0 0 0 10 0 0 2 3 20 39 14 22 143 268 115 26 1 19 69 17 12 31 59 57 38 16 3 1 2 11 15 10 12 26 74 137 189 194 192 188 230
1493 1485 1405 1380 1368 1305 1248 1208 1074 951 848 701 444 47 36 50 92 37 25 55 14 5 0 4 3 0 0 0 0 0 0 0 0 0 0 1 0 0 0 0 0 0 0 0 0 0 0 0 0 0 0 45 29 6 0 0 7 675 297 130 9 280 230 95 138 100 36 16 9 3 0 0 0 0 0 2 9 27 64 61 31 34 52 86 96
1572 1545 1456 1388 1369 1316 1295 1217 1068 964 918 872 556 31 24 20 62 82 20 50 50 2 3 0 0 0 0 1 0 0 0 0 0 0 6 0 1 0 0 0 1 0 0 0 0 0 0 0 12 141 64 91 101 4 4 0 0 0 76 15 12 5 0 0 3 68 98 28 0 0 0 0 0 0 0 1 2 18 55 91 52 4 8 4 6
1637 1616 1597 1501 1430 1380 1361 1286 1140 1028 898 777 434 42 38 10 17 78 40 33 60 45 16 5 0 0 0 11 7 2 15 25 1 0 0 13 16 13 26 13 3 6 0 0 0 0 8 0 15 15 220 78 161 12 93 75 18 18 4 3 7 8 9 1 0 0 11 16 0 0 0 0 0 0 0 0 0 0 2 5 2 0 0 0 0
1673 1631 1619 1625 1553 1499 1446 1370 1246 948 751 624 456 224 218 78 9 39 53 36 32 59 75 42 7 0 0 4 3 0 28 7 0 0 0 0 22 30 28 35 31 17 12 10 13 4 113 214 0 2 122 53 102 76 19 8 40 23 4 7 28 31 58 38 20 16 52 39 4 0 0 0 0 0 0 0 0 0 0 0 0 0 0 0 0
1808 1745 1650 1619 1618 1581 1509 1443 1351 1174 966 798 658 536 505 194 34 35 38 26 26 20 77 102 43 7 3 1 1 0 24 29 4 5 9 0 4 17 11 38 219 172 10 37 22 18 0 0 0 0 0 7 3 0 0 22 18 40 41 36 0 2 8 38 66 76 94 65 16 0 0 0 0 0 0 0 0 0 0 0 0 0 0 0 0
1942 1900 1820 1770 1693 1596 1562 1495 1407 1286 1117 941 810 683 613 326 117 73 76 50 28 19 22 57 207 68 166 141 13 14 13 22 0 5 10 19 10 18 16 86 235 233 220 57 28 0 0 0 0 0 0 0 0 0 6 40 33 0 0 4 34 25 10 9 26 126 194 173 112 45 4 0 0 0 0 0 0 0 0 0 0 0 0 0 0
2080 2024 1968 1901 1816 1668 1541 1512 1443 1313 1180 1028 920 802 686 515 177 154 125 109 203 272 322 301 340 128 39 26 24 40 36 32 12 5 8 159 68 21 149 194 227 273 277 277 3 0 0 1 0 0 0 0 10 4 7 47 21 16 2 0 0 0 3 17 27 79 145 117 45 25 7 0 0 0 0 0 0 0 0 0 0 0 0 0 0
2162 2119 2071 2005 1898 1803 1705 1581 1415 1282 1175 1066 975 852 687 492 181 216 252 306 396 424 80 208 295 86 64 48 48 50 58 50 39 178 163 163 116 37 54 246 248 303 315 283 56 3 0 0 0 0 0 0 14 64 5 3 11 11 18 10 5 0 0 0 40 14 0 0 0 11 18 9 0 0 0 0 0 0 0 0 0 0 0 0 0
2273 2175 2135 2082 2010 1914 1834 1723 1619 1466 1332 1197 1056 907 732 540 298 349 409 497 632 646 291 246 193 173 78 60 61 56 65 56 305 313 236 208 252 312 348 385 399 297 305 291 261 86 5 98 4 19 0 0 0 0 0 0 0 0 0 10 19 1 0 0 0 2 0 3 1 0 0 0 0 0 0 0 0 0 0 0 0 0 0 0 0
2314 2260 2166 2101 2048 2007 1929 1848 1752 1651 1530 1400 1269 1104 918 750 599 585 704 867 978 994 528 414 402 272 268 152 167 74 175 404 350 343 278 323 277 359 449 492 500 427 342 327 340 310 335 386 131 0 0 0 0 0 0 0 0 0 0 0 0 0 0 0 0 0 0 0 0 0 0 0 0 0 0 0 0 0 0 0 0 10 9 0 0
2351 2319 2281 2216 2145 2084 2038 1965 1891 1818 1723 1604 1473 1331 1192 1047 945 1184 1342 1334 1340 982 708 452 514 353 337 174 163 536 640 1098 971 616 452 608 645 422 462 468 455 401 364 373 370 270 327 435 457 448 0 0 0 0 0 0 0 0 0 0 0 0 0 0 0 0 0 0 0 0 0 0 0 0 0 0 0 0 0 0 0 0 0 0 0
2429 2408 2371 2339 2303 2242 2182 2116 2059 2005 1938 1821 1722 1608 1497 1457 1562 1484 1418 1428 1492 1390 1036 606 672 422 307 470 456 579 906 1358 1286 1250 972 860 983 864 484 455 337 258 317 332 268 304 441 474 468 460 419 0 0 204 0 0 0 0 0 0 0 0 0 0 0 0 0 0 0 0 0 0 0 0 0 0 0 0 0 0 0 0 0 0 0
2535 2535 2490 2448 2428 2400 2366 2320 2257 2194 2116 2027 1944 1843 1785 2065 2232 2127 1823 1631 1543 1463 1152 763 776 681 371 374 290 227 564 658 787 1251 1674 1443 1008 987 935 726 515 408 389 401 375 364 408 465 532 546 274 0 157 0 0 0 0 0 0 0 0 0 0 0 0 0 0 0 0 0 0 0 0 0 0 0 0 0 0 0 0 0 0 0 0
2615 2639 2644 2593 2567 2526 2499 2463 2438 2391 2342 2282 2207 2191 2366 2518 2539 2413 2240 1952 1687 1491 1195 1078 939 717 400 265 304 212 332 1330 1218 614 722 875 801 749 808 878 874 801 708 641 574 458 555 662 463 379 419 353 139 0 0 0 0 0 0 0 0 0 0 0 0 0 0 0 0 0 0 0 0 0 0 0 0 0 0 0 0 0 0 0 0
2609 2712 2748 2732 2701 2677 2655 2608 2588 2547 2524 2499 2615 2684 2746 2800 2752 2586 2336 2106 1883 1732 1401 1123 1005 718 495 472 268 216 151 732 775 574 566 544 547 309 326 575 773 861 804 762 688 609 458 384 390 315 374 356 138 192 65 7 0 5 0 0 0 0 0 0 0 0 0 0 0 0 0 0 0 0 0 0 0 0 0 0 0 0 0 0 0
2658 2792 2853 2876 2868 2837 2821 2794 2769 2746 2801 2966 3041 3020 3006 3016 2862 2639 2391 2112 1861 1684 1483 1180 985 788 534 357 272 277 153 438 494 540 570 578 539 469 534 615 692 760 849 805 617 213 88 206 216 340 622 406 250 133 16 4 3 0 0 0 0 0 0 0 0 0 0 0 0 0 0 0 0 0 0 0 0 0 0 0 0 0 0 0 0
2774 2880 2946 2972 2997 2992 3000 2984 2982 3083 3264 3349 3318 3270 3221 3137 2896 2642 2354 2088 1869 1682 1468 1242 1078 913 587 462 401 246 179 399 372 448 665 512 448 539 569 656 730 650 486 596 502 403 431 693 919 736 492 266 171 82 54 15 0 0 7 1 0 0 0 0 0 0 0 0 0 0 0 0 0 0 0 0 0 0 0 0 0 0 0 0 0
2960 3000 3088 3136 3161 3189 3195 3248 3359 3485 3562 3555 3479 3384 3303 3102 2795 2571 2337 2119 1944 1702 1407 1258 1108 910 774 636 487 346 194 341 470 529 619 1421 860 928 944 957 842 754 895 828 719 1075 1236 963 620 423 357 26 0 0 0 263 203 0 0 0 0 0 0 0 0 0 0 0 0 0 0 0 0 0 0 0 0 0 0 0 0 0 0 0 0
3210 3203 3225 3290 3383 3430 3490 3543 3598 3657 3680 3570 3462 3321 3196 3070 2848 2574 2382 2190 2036 1798 1486 1264 1096 951 731 560 407 270 251 314 511 623 434 964 909 930 886 903 1085 1268 1447 1324 1096 1044 884 674 536 195 0 0 0 0 0 0 0 0 0 0 0 0 0 0 0 0 0 0 0 0 0 0 0 0 0 0 0 0 0 0 0 0 0 0 0
3439 3423 3413 3449 3493 3527 3602 3681 3775 3765 3662 3568 3482 3331 3192 3049 2851 2586 2300 2044 1934 1723 1525 1323 1082 900 639 756 1011 269 332 555 282 232 288 400 656 610 672 811 1031 1159 1256 1103 953 862 800 543 0 0 0 0 30 0 4 0 0 0 0 0 0 0 0 0 0 0 0 0 0 0 0 0 0 0 0 0 0 0 0 0 0 0 0 0 0
Wind_Speed
16 16 14 15 14 12 13 14 13 14 13 13 13 12 11 11 12 11 11 11 11 12 11 10 9 9 10 11 10 10 10 11 10 10 10 10 11 14 19 19 19 20 19 19 19 19 18 17 17 16 14 12 13 13 12 12 13 12 11 11 11 10 10 10 10 11 11 11 11 10 10 9 8 7 6 6 5 5 4 4 4 6 7 8 8
15 14 12 13 12 11 11 12 13 13 12 13 13 12 11 11 12 13 12 11 10 10 8 8 7 8 10 11 10 6 5 7 10 11 11 11 11 10 18 18 19 19 19 18 18 18 18 18 18 18 18 17 16 16 14 12 11 10 9 9 10 10 10 11 11 11 11 10 9 8 7 8 8 7 6 6 6 6 6 6 6 6 7 8 9
12 12 11 11 11 11 11 10 11 12 11 12 11 11 11 12 13 14 11 10 11 11 9 8 9 9 10 9 9 9 9 nan 13 12 11 11 10 9 12 19 19 18 17 17 17 17 18 18 19 17 17 19 19 18 17 13 11 9 9 8 8 9 11 13 14 13 11 9 8 8 6 6 5 5 5 5 5 4 4 5 6 6 6 7 8
11 11 10 10 10 10 10 9 11 12 10 10 11 10 11 12 12 11 10 10 11 10 8 7 9 10 nan 13 10 9 nan nan 13 13 12 12 12 12 11 11 17 16 15 15 15 16 17 18 18 18 18 19 19 20 18 15 11 9 8 7 7 8 8 12 14 12 9 8 7 6 6 5 5 4 4 4 3 3 3 3 4 5 5 6 7
10 10 9 10 9 9 10 10 11 11 10 10 9 10 10 11 11 9 9 9 8 8 8 9 9 8 nan nan nan 13 12 nan nan 14 15 14 14 13 12 12 11 13 14 14 14 15 15 16 17 17 17 17 20 19 18 16 13 8 5 6 8 8 7 8 9 7 5 6 7 5 5 5 5 5 4 3 2 2 1 1 2 3 4 5 6
8 9 8 9 9 9 10 10 10 10 10 9 11 10 11 11 10 8 8 8 7 7 7 6 nan nan nan 11 11 13 13 12 13 15 15 14 14 14 14 13 13 11 10 13 14 14 14 14 16 16 16 16 16 16 15 17 15 11 8 5 3 5 9 11 9 3 3 5 6 5 5 4 4 4 4 3 3 2 1 1 1 1 2 3 4
7 8 8 8 9 10 10 10 10 10 10 11 11 11 11 11 10 10 9 9 10 8 8 10 9 9 9 8 10 8 9 10 11 13 14 13 13 13 14 13 13 12 12 11 12 14 13 13 14 15 16 15 15 16 15 14 14 12 10 8 3 2 3 6 5 2 6 6 4 5 5 5 5 4 4 4 3 3 2 2 1 1 1 2 3
7 7 8 9 10 11 11 10 10 10 11 11 10 11 11 10 9 11 11 10 12 11 11 nan 10 10 nan 7 8 8 8 7 8 11 12 14 13 12 12 13 13 13 13 14 13 12 15 13 14 14 14 14 14 12 11 13 12 11 12 12 10 6 6 4 4 8 7 3 3 5 6 7 7 6 5 5 4 3 2 2 1 1 1 1 2
9 9 9 10 11 11 12 12 12 13 13 12 12 12 12 11 10 12 14 14 14 13 nan nan nan nan nan nan 9 8 7 8 6 9 10 12 13 12 11 11 12 14 14 14 14 14 15 15 15 15 14 13 11 16 17 11 9 9 12 13 14 14 12 8 8 8 6 6 6 5 4 6 9 9 8 7 5 6 7 4 1 1 1 1 1
10 9 9 9 11 12 13 14 14 15 14 14 14 12 12 13 11 11 16 16 nan nan nan nan nan nan nan nan 10 8 7 8 6 6 11 11 12 12 11 11 11 12 14 14 15 15 14 15 15 15 14 12 11 9 13 15 15 10 9 9 10 12 12 11 12 10 10 10 8 8 10 8 6 6 9 9 6 7 6 4 2 2 2 1 1
10 10 10 11 12 13 15 15 15 16 15 15 14 13 12 13 14 13 14 15 nan nan 14 13 nan nan nan nan nan nan nan 8 9 10 8 12 10 8 9 9 10 12 15 15 16 16 15 14 13 13 12 12 11 10 9 12 17 13 12 12 11 12 13 13 11 10 9 8 8 9 10 11 9 4 4 7 7 8 7 6 4 3 4 3 2
11 11 12 13 14 15 16 15 15 16 15 14 13 14 14 13 14 15 15 14 14 15 nan nan nan nan 13 nan nan nan nan 9 12 10 11 11 11 8 8 9 10 11 12 14 15 15 15 15 13 14 13 11 11 10 9 10 14 16 15 14 12 13 13 13 12 10 8 8 7 8 9 9 9 8 3 3 5 8 9 8 6 4 3 4 4
12 13 14 14 15 16 16 16 15 16 15 14 14 14 15 16 16 13 15 nan 13 nan nan nan nan nan nan nan nan 13 13 12 nan nan 12 13 13 9 7 8 9 11 11 12 13 14 15 15 15 14 14 13 11 9 9 10 13 13 12 11 12 11 10 10 10 10 10 9 9 8 6 6 6 7 6 4 2 3 5 7 9 7 7 6 6
13 15 16 17 17 16 16 16 16 15 14 12 13 14 14 15 15 13 12 nan nan nan nan nan nan nan nan nan nan nan 14 14 12 13 14 17 15 11 10 11 10 11 11 11 11 13 14 15 15 15 15 15 14 13 12 12 13 13 12 11 9 7 7 6 6 6 7 7 7 7 6 5 4 2 4 3 2 3 0 1 2 5 7 8 8
14 16 16 17 17 17 15 15 15 14 14 12 13 15 15 16 16 nan nan 15 16 18 nan nan nan nan 20 nan nan nan nan nan nan nan nan 19 18 14 13 12 12 13 13 11 10 11 13 14 14 15 16 16 17 16 14 14 13 13 13 12 11 10 7 7 7 4 4 5 5 4 5 4 4 2 2 2 2 1 1 0 1 0 2 4 8
15 16 15 16 16 16 14 14 15 15 16 15 nan nan nan nan nan nan nan nan nan nan 20 nan nan nan nan nan nan nan nan nan nan nan 17 20 nan nan 15 nan 16 16 15 13 11 11 12 13 14 15 16 17 17 17 16 14 12 15 18 17 18 16 14 13 14 11 8 6 7 6 6 6 5 5 4 3 2 2 2 2 1 0 0 1 2
16 17 16 16 14 14 14 14 14 15 15 17 nan nan nan nan nan nan nan nan nan nan 20 21 nan nan nan nan nan nan nan nan nan nan 16 nan nan nan 16 17 18 18 18 15 13 13 13 12 14 15 16 17 17 17 16 14 15 16 17 17 17 18 19 18 18 18 17 16 14 12 11 10 10 9 7 8 6 6 4 3 3 3 2 2 3
15 16 16 14 13 13 13 14 15 15 17 18 nan nan nan nan nan nan nan nan nan nan nan 21 23 24 nan nan nan nan nan nan nan nan nan nan nan nan nan 17 18 20 18 16 15 14 15 14 14 14 15 16 17 17 16 16 16 17 18 17 18 17 17 17 17 19 19 18 18 18 18 17 17 15 15 15 14 13 11 12 11 8 7 6 6
15 15 15 13 13 13 14 15 16 16 17 18 nan nan nan nan nan nan nan 21 nan nan nan nan nan 23 23 nan 25 26 nan nan nan nan nan nan nan nan nan nan 19 21 19 nan nan nan nan nan 16 15 14 15 16 16 16 17 17 17 19 19 20 18 18 18 16 17 18 19 18 17 16 15 15 15 15 15 14 13 14 14 14 14 13 12 12
15 14 14 13 13 14 15 15 17 17 18 nan nan nan nan nan nan nan nan nan nan nan nan nan nan nan 21 nan 25 27 nan nan nan nan nan nan nan nan nan nan nan nan nan nan nan nan nan nan 17 16 16 15 15 16 16 17 18 18 17 19 nan nan nan nan nan 18 18 nan 17 16 nan nan 14 14 14 14 14 14 15 14 14 14 14 13 13
14 14 13 13 13 15 15 16 18 19 18 nan nan nan nan nan nan nan nan nan nan nan nan nan nan nan nan nan nan nan nan nan nan nan nan nan nan nan nan nan nan nan nan nan nan nan nan nan nan 18 17 17 16 15 16 18 19 20 18 20 nan nan nan nan nan nan nan nan nan nan nan nan nan nan nan nan 13 14 nan 15 15 15 15 14 14
13 13 13 13 14 15 16 18 19 19 19 nan nan nan nan nan nan nan nan nan 23 nan nan nan nan nan nan nan nan nan nan nan nan nan nan nan nan nan nan nan nan nan nan nan nan nan nan nan nan nan 18 18 17 16 17 17 19 21 20 22 22 22 20 19 18 17 nan nan nan nan nan nan nan nan nan nan nan nan nan nan nan 16 16 16 16
13 12 13 13 14 16 18 19 18 19 20 nan nan nan nan nan nan nan nan nan nan nan 26 26 nan 28 nan nan nan nan nan nan nan nan nan nan nan nan nan nan nan nan nan nan nan nan nan nan nan nan nan nan 18 18 17 17 nan nan nan 22 23 22 nan 19 19 17 16 nan nan nan nan nan nan nan nan nan nan nan nan nan nan nan nan nan nan
14 13 12 13 15 16 18 19 18 19 21 nan nan nan nan nan nan nan nan nan nan nan 28 28 nan nan nan nan nan nan nan nan nan nan nan nan nan nan nan nan nan nan nan nan nan nan nan nan nan nan nan nan nan nan nan nan nan nan nan 20 22 21 20 20 20 18 17 nan nan nan nan nan nan nan nan nan nan nan nan nan nan nan nan nan nan
14 14 14 15 15 17 18 19 19 20 22 nan nan nan nan nan nan nan nan nan nan nan nan nan nan nan nan nan nan nan nan nan nan nan nan nan nan nan nan nan nan nan nan nan nan nan nan nan nan nan nan nan nan nan nan nan nan 21 22 20 21 20 20 20 20 nan 18 16 nan 12 11 nan nan nan 8 nan nan nan nan nan nan nan nan nan nan
16 15 16 17 16 17 18 19 20 21 23 24 nan nan nan nan nan nan nan nan nan nan nan nan nan nan nan nan nan nan nan nan nan nan nan nan nan nan nan nan nan nan nan nan 15 nan nan nan nan nan nan nan nan nan nan nan nan 21 22 nan 20 20 20 19 19 19 18 16 14 12 9 nan nan 8 8 8 8 nan 9 nan nan nan nan nan nan
16 14 16 18 18 17 17 19 20 22 23 24 nan nan nan nan nan nan nan nan nan nan nan nan nan nan nan nan nan nan nan nan nan nan nan nan nan nan nan nan nan nan nan nan nan nan nan nan nan nan nan nan nan nan nan nan nan 22 21 23 nan 19 19 nan nan 16 14 12 12 11 12 12 11 12 12 12 nan 10 9 8 9 10 11 nan nan
15 15 15 18 19 19 19 19 21 22 23 23 nan nan nan nan nan nan nan 31 nan nan nan nan nan nan nan nan nan nan nan nan nan nan nan nan nan nan nan nan nan nan nan nan nan nan nan nan nan nan nan nan nan nan nan nan nan 22 22 23 nan nan 17 16 nan nan nan 11 12 15 16 17 17 16 15 14 14 13 12 11 11 11 11 12 12
15 15 16 16 18 20 20 20 21 21 22 22 nan nan nan nan nan nan nan 33 nan nan nan nan nan nan nan nan nan nan nan nan nan nan nan nan nan nan nan nan nan nan nan nan nan nan nan nan nan nan nan 18 nan nan nan nan nan 24 24 24 nan nan nan nan 14 nan nan 15 18 21 22 22 21 19 16 14 13 13 13 13 13 13 12 12 13
15 15 16 17 18 20 20 20 20 20 22 23 25 nan nan nan nan nan nan nan nan nan nan nan nan nan nan nan nan nan nan nan nan nan nan nan nan nan nan nan nan nan nan nan nan nan nan nan nan nan nan nan nan 18 nan nan nan 21 23 nan nan nan nan nan nan 17 nan nan nan nan nan nan 24 22 20 nan 15 14 14 14 14 13 13 14 14
14 15 16 17 18 19 20 20 20 21 22 25 27 nan nan nan nan nan nan nan nan nan nan nan nan nan nan nan nan nan nan nan nan nan nan nan nan nan nan nan nan nan nan nan nan nan nan nan nan nan nan nan nan nan nan nan 17 18 20 nan nan nan nan nan nan nan nan nan nan nan nan nan nan nan nan nan nan nan nan 18 17 16 15 14 14
12 15 16 17 19 20 20 21 21 22 25 26 29 nan nan nan nan nan nan nan nan nan nan nan nan nan nan nan nan nan nan nan nan nan nan nan nan nan nan nan nan nan nan nan nan nan nan nan nan nan nan nan nan nan nan nan nan 17 20 21 nan 21 22 nan 22 22 nan nan nan nan nan nan nan nan nan nan nan nan nan nan nan nan nan nan nan
11 13 15 17 18 20 21 21 23 25 27 28 28 nan nan nan nan nan nan nan nan nan nan nan nan nan nan nan nan nan nan nan nan nan nan nan nan nan nan nan nan nan nan nan nan nan nan nan nan 20 nan nan 18 nan nan nan nan nan nan nan nan nan nan nan nan nan nan nan nan nan nan nan nan nan nan nan nan nan nan nan nan nan nan nan nan
11 12 14 15 17 19 20 21 24 26 28 29 29 nan nan nan nan nan nan nan nan nan nan nan nan nan nan nan nan nan nan nan nan nan nan nan nan nan nan nan nan nan nan nan nan nan nan nan nan nan 21 nan 20 nan nan nan nan nan nan nan nan nan nan nan nan nan nan nan nan nan nan nan nan nan nan nan nan nan nan nan nan nan nan nan nan
10 12 14 15 17 18 19 21 24 25 27 28 30 32 34 nan nan nan nan nan nan nan nan nan nan nan nan nan nan nan nan nan nan nan nan nan nan nan nan nan nan nan nan nan nan nan 25 24 nan nan 24 nan 25 nan nan nan nan nan nan nan nan nan nan nan nan nan nan nan nan nan nan nan nan nan nan nan nan nan nan nan nan nan nan nan nan
11 11 13 15 17 18 20 22 23 24 26 28 31 33 36 37 nan nan nan nan nan nan nan 31 nan nan nan nan nan nan nan nan nan nan nan nan nan nan nan nan 33 33 nan nan nan nan nan nan nan nan nan nan nan nan nan nan nan nan nan nan nan nan nan nan nan nan nan nan nan nan nan nan nan nan nan nan nan nan nan nan nan nan nan nan nan
10 12 12 14 16 19 20 22 22 23 26 29 31 33 34 35 37 nan nan nan nan nan nan nan 28 nan 28 28 nan nan nan nan nan nan nan nan nan nan nan nan 33 32 32 nan nan nan nan nan nan nan nan nan nan nan nan nan nan nan nan nan nan nan nan nan nan 28 28 28 30 nan nan nan nan nan nan nan nan nan nan nan nan nan nan nan nan
10 11 12 14 16 19 19 20 21 23 25 28 31 34 35 35 36 37 38 37 36 34 32 30 28 26 nan nan nan nan nan nan nan nan nan 35 nan nan 35 35 35 34 34 33 nan nan nan nan nan nan nan nan nan nan nan nan nan nan nan nan nan nan nan nan nan nan 37 40 nan nan nan nan nan nan nan nan nan nan nan nan nan nan nan nan nan
9 10 12 14 15 16 17 18 21 24 26 27 29 32 34 35 36 38 38 39 38 36 nan 32 29 nan nan nan nan nan nan nan nan 35 36 37 37 nan nan 38 37 36 34 33 nan nan nan nan nan nan nan nan nan nan nan nan nan nan nan nan nan nan nan nan nan nan nan nan nan nan nan nan nan nan nan nan nan nan nan nan nan nan nan nan nan
8 10 12 13 13 14 16 18 21 23 26 27 29 32 34 36 37 38 40 40 41 38 36 34 31 29 nan nan nan nan nan nan 35 36 38 39 38 37 39 39 38 36 33 31 31 nan nan nan nan nan nan nan nan nan nan nan nan nan nan nan nan nan nan nan nan nan nan nan nan nan nan nan nan nan nan nan nan nan nan nan nan nan nan nan nan
8 9 10 11 12 14 16 19 22 24 27 28 30 33 36 37 38 40 41 42 42 40 37 35 32 31 29 29 30 nan 34 36 39 39 39 40 41 40 39 41 39 37 33 33 34 35 34 35 33 nan nan nan nan nan nan nan nan nan nan nan nan nan nan nan nan nan nan nan nan nan nan nan nan nan nan nan nan nan nan nan nan nan nan nan nan
8 9 9 11 13 16 19 21 23 25 27 29 33 41 41 39 41 41 41 41 42 41 38 35 33 32 31 31 32 36 38 39 39 40 40 41 42 43 43 44 41 37 34 35 37 38 40 39 37 37 nan nan nan nan nan nan nan nan nan nan nan nan nan nan nan nan nan nan nan nan nan nan nan nan nan nan nan nan nan nan nan nan nan nan nan
8 9 10 13 15 18 21 23 26 27 29 31 40 43 45 46 44 43 43 42 41 41 39 37 34 33 32 33 34 36 38 37 37 40 40 40 40 42 44 44 42 38 36 37 38 42 43 41 39 40 39 nan nan 41 nan nan nan nan nan nan nan nan nan nan nan nan nan nan nan nan nan nan nan nan nan nan nan nan nan nan nan nan nan nan nan
9 11 12 14 17 20 22 25 28 30 31 36 45 48 49 49 48 45 44 43 42 42 41 39 36 34 34 35 35 35 36 36 36 37 38 39 39 39 40 39 37 37 38 40 41 43 44 43 42 40 40 nan 37 nan nan nan nan nan nan nan nan nan nan nan nan nan nan nan nan nan nan nan nan nan nan nan nan nan nan nan nan nan nan nan nan
13 12 13 16 18 21 24 27 29 32 33 41 48 51 52 52 52 49 45 46 45 44 43 41 39 38 37 36 35 34 33 37 37 37 39 38 38 38 36 33 31 34 37 38 42 45 48 47 43 36 38 42 41 nan nan nan nan nan nan nan nan nan nan nan nan nan nan nan nan nan nan nan nan nan nan nan nan nan nan nan nan nan nan nan nan
13 13 14 17 19 22 25 28 30 32 34 42 50 52 52 53 54 53 47 48 47 45 44 43 40 39 39 38 36 34 33 35 37 38 38 37 37 38 38 37 37 37 38 40 42 48 47 42 37 35 38 47 44 44 nan nan nan nan nan nan nan nan nan nan nan nan nan nan nan nan nan nan nan nan nan nan nan nan nan nan nan nan nan nan nan
13 14 15 18 20 23 26 29 30 33 35 46 50 51 52 55 57 55 49 49 47 45 44 43 42 41 40 40 38 37 36 37 38 40 40 38 37 37 38 38 38 36 36 39 45 47 nan 37 39 40 40 44 45 45 nan nan nan nan nan nan nan nan nan nan nan nan nan nan nan nan nan nan nan nan nan nan nan nan nan nan nan nan nan nan nan
14 14 15 18 21 24 28 31 32 35 38 49 51 52 54 56 59 55 50 49 47 45 44 43 42 42 42 41 40 39 39 39 41 44 42 40 38 38 40 40 35 33 35 42 56 51 44 42 44 44 43 44 46 nan nan nan nan nan nan nan nan nan nan nan nan nan nan nan nan nan nan nan nan nan nan nan nan nan nan nan nan nan nan nan nan
16 16 18 20 23 27 30 33 36 38 40 49 54 55 56 60 60 54 49 47 46 46 45 44 44 43 43 42 42 41 41 42 44 45 43 42 40 42 43 40 37 37 38 45 56 52 45 42 41 41 43 nan nan nan nan 45 50 nan nan nan nan nan nan nan nan nan nan nan nan nan nan nan nan nan nan nan nan nan nan nan nan nan nan nan nan
17 18 20 23 25 28 32 35 39 41 42 49 56 56 57 59 58 50 43 42 43 45 45 45 45 45 45 49 46 44 44 44 45 46 44 43 43 42 41 41 39 38 40 45 47 49 51 53 52 49 nan nan nan nan nan nan nan nan nan nan nan nan nan nan nan nan nan nan nan nan nan nan nan nan nan nan nan nan nan nan nan nan nan nan nan
19 21 24 26 27 29 32 36 41 43 43 47 52 53 55 55 52 45 42 41 44 45 46 45 44 45 44 46 49 46 45 44 45 44 44 44 41 42 42 41 39 40 43 47 46 46 46 47 nan nan nan nan nan nan nan nan nan nan nan nan nan nan nan nan nan nan nan nan nan nan nan nan nan nan nan nan nan nan nan nan nan nan nan nan nan
Wind_Direction
65 65 63 66 67 64 62 60 62 65 66 69 64 65 56 51 53 54 53 49 48 52 46 43 41 33 31 34 33 20 357 7 9 11 14 11 14 12 12 19 24 23 26 26 26 26 24 21 17 16 5 4 357 350 340 333 330 319 316 313 312 312 310 307 302 292 290 294 302 312 315 317 320 326 331 335 332 335 349 12 24 35 32 25 20
62 63 57 64 64 63 61 61 58 63 61 61 60 49 41 47 46 46 46 47 47 50 43 45 27 27 31 31 38 2 346 0 12 7 10 7 9 6 6 15 20 20 18 18 19 18 21 21 21 20 6 8 12 2 358 349 339 330 330 323 322 323 321 315 306 296 284 278 279 286 305 312 317 324 334 340 339 338 347 359 16 29 35 31 20
59 58 57 55 60 59 57 60 62 63 56 56 54 42 37 36 40 40 39 36 37 38 29 27 23 20 24 11 25 11 4 nan 5 7 2 3 348 358 4 15 17 16 13 10 11 10 12 17 22 17 13 5 17 12 10 4 349 343 343 344 336 328 323 317 310 300 284 272 267 279 286 293 311 319 327 335 340 345 350 358 8 24 36 37 39
50 56 51 52 57 58 58 52 56 54 44 40 41 37 33 36 38 31 22 21 33 32 20 8 31 19 nan 0 355 345 nan nan 348 353 350 348 349 354 1 4 15 13 8 8 7 6 5 10 15 16 15 10 12 16 17 13 359 1 358 350 339 325 329 327 317 305 282 256 247 254 275 290 290 300 310 319 327 343 354 2 9 20 31 40 40
49 47 51 53 53 54 54 50 48 43 39 34 27 29 27 30 34 18 12 16 25 29 8 3 16 7 nan nan nan 349 342 nan nan 336 344 347 349 352 350 355 354 5 4 3 4 4 4 4 7 11 14 12 12 12 14 17 13 12 4 5 351 337 328 342 328 311 269 237 226 235 251 269 283 290 294 299 309 318 351 2 23 30 41 45 43
45 53 47 46 48 48 47 44 38 33 32 23 17 19 22 20 22 9 3 357 6 19 6 7 nan nan nan 358 343 333 338 328 323 330 334 346 343 343 346 345 345 342 338 355 358 1 3 1 2 6 10 3 14 6 14 22 16 23 24 15 350 13 349 352 356 40 199 203 212 224 237 250 263 271 282 291 291 307 339 356 16 56 64 59 56
50 41 42 38 37 41 44 39 28 21 18 17 8 10 8 13 9 360 350 344 345 349 347 349 336 344 333 336 328 330 325 320 313 318 328 333 334 336 336 340 338 333 330 324 344 355 357 360 0 5 3 6 7 6 15 20 18 21 26 18 340 300 318 30 47 124 147 184 210 239 244 252 259 261 266 270 280 288 311 341 0 39 50 56 64
43 40 30 32 27 27 30 24 14 3 6 5 358 358 356 2 355 346 337 335 330 332 325 nan 329 319 nan 333 344 324 320 311 301 315 319 322 323 323 334 335 329 330 325 321 322 334 348 354 357 359 1 5 3 347 8 23 8 22 27 15 344 24 28 11 22 29 40 17 309 299 287 272 255 257 251 242 245 260 275 292 326 350 8 36 56
33 32 24 22 19 14 13 8 359 354 354 355 353 348 344 341 345 340 332 333 327 316 nan nan nan nan nan nan 325 317 310 303 300 312 305 308 312 318 329 329 329 331 316 316 318 323 339 349 350 352 356 358 4 351 344 7 0 25 28 27 7 11 22 17 26 52 48 34 9 324 313 296 268 238 243 247 232 227 215 194 215 306 326 339 1
27 23 16 9 4 358 356 354 349 345 347 343 349 340 338 336 343 337 325 329 nan nan nan nan nan nan nan nan 313 304 306 298 306 297 289 293 300 310 333 332 327 318 311 312 313 315 318 336 345 347 350 352 348 349 339 342 334 5 19 41 23 20 20 25 33 36 42 47 44 20 16 14 332 268 233 237 235 239 251 238 217 246 256 260 274
16 8 2 353 349 347 346 347 340 337 338 340 340 340 342 339 340 336 330 327 nan nan 326 324 nan nan nan nan nan nan nan 315 298 282 284 294 297 310 316 319 305 303 309 309 306 309 310 311 314 315 326 345 346 341 332 325 327 345 2 9 32 17 20 23 31 36 38 49 44 47 38 32 25 11 247 236 246 263 255 255 233 248 272 264 280
4 357 351 344 339 340 340 337 334 331 335 337 344 343 348 341 339 342 332 333 328 330 nan nan nan nan 317 nan nan nan nan 312 299 297 288 289 294 301 303 297 298 303 307 306 304 302 302 304 304 309 306 319 340 332 326 323 313 330 339 343 16 9 15 17 23 21 25 41 43 48 49 46 48 46 53 216 235 260 273 271 268 249 243 248 245
354 345 343 337 334 332 332 335 333 333 338 347 344 348 348 346 348 344 339 nan 337 nan nan nan nan nan nan nan nan 313 316 305 nan nan 293 293 290 294 279 280 288 301 304 299 298 297 298 301 300 297 299 298 304 316 321 314 301 301 304 318 337 351 359 10 11 10 16 21 26 27 30 46 53 61 62 64 77 264 277 279 267 253 250 251 250
346 343 340 334 330 331 335 339 339 342 347 349 349 349 349 346 344 343 340 nan nan nan nan nan nan nan nan nan nan nan 309 303 296 294 304 294 293 297 293 291 295 295 291 292 297 300 300 299 295 293 292 294 295 286 282 284 296 298 291 292 302 317 333 349 357 4 13 12 23 21 21 25 39 59 78 78 71 77 127 267 247 244 243 240 240
343 341 337 336 334 335 343 344 347 346 349 354 351 353 348 345 343 nan nan 333 337 335 nan nan nan nan 324 nan nan nan nan nan nan nan nan 295 295 300 294 290 290 285 287 291 298 298 294 292 291 289 286 286 286 283 279 280 284 292 287 276 280 288 294 301 293 297 341 353 357 1 359 343 329 359 36 39 67 97 82 42 358 161 232 238 240
343 338 337 338 338 342 346 347 350 347 350 353 nan nan nan nan nan nan nan nan nan nan 335 nan nan nan nan nan nan nan nan nan nan nan 291 300 nan nan 285 nan 287 285 288 296 298 293 294 292 290 285 283 281 283 283 283 282 290 293 287 279 272 268 279 284 286 295 285 294 306 310 311 317 312 307 307 286 255 227 212 172 204 351 108 173 217
341 341 342 343 342 344 346 348 347 349 348 354 nan nan nan nan nan nan nan nan nan nan 333 329 nan nan nan nan nan nan nan nan nan nan 292 nan nan nan 286 288 291 292 291 297 300 300 301 297 289 285 282 281 280 283 285 283 277 280 283 284 278 268 266 268 276 278 279 278 281 282 283 283 285 285 282 280 258 237 227 229 253 255 244 227 216
340 342 345 342 345 345 344 344 347 351 349 354 nan nan nan nan nan nan nan nan nan nan nan 327 324 322 nan nan nan nan nan nan nan nan nan nan nan nan nan 289 288 287 289 296 300 302 301 302 296 295 291 289 286 282 282 285 284 284 286 290 293 283 272 267 268 275 280 282 284 284 284 282 280 276 270 268 270 269 264 255 248 232 219 211 216
340 342 342 345 345 343 343 345 347 349 349 345 nan nan nan nan nan nan nan 335 nan nan nan nan nan 322 320 nan 318 315 nan nan nan nan nan nan nan nan nan nan 287 287 292 nan nan nan nan nan 304 302 298 290 286 282 280 282 290 295 302 302 299 296 289 283 277 279 280 282 284 286 288 287 284 278 273 268 263 260 258 254 250 247 242 234 227
337 341 341 342 342 343 342 342 343 346 344 nan nan nan nan nan nan nan nan nan nan nan nan nan nan nan 328 nan 325 315 nan nan nan nan nan nan nan nan nan nan nan nan nan nan nan nan nan nan 302 303 303 295 289 284 280 280 281 285 293 306 nan nan nan nan nan 287 285 nan 284 284 nan nan 284 280 276 273 269 264 260 255 251 250 248 244 236
335 336 338 340 341 343 340 339 341 343 343 nan nan nan nan nan nan nan nan nan nan nan nan nan nan nan nan nan nan nan nan nan nan nan nan nan nan nan nan nan nan nan nan nan nan nan nan nan nan 305 305 299 295 290 283 279 281 283 290 308 nan nan nan nan nan nan nan nan nan nan nan nan nan nan nan nan 266 264 nan 258 255 251 250 247 243
332 333 332 336 337 337 337 340 343 344 341 nan nan nan nan nan nan nan nan nan 328 nan nan nan nan nan nan nan nan nan nan nan nan nan nan nan nan nan nan nan nan nan nan nan nan nan nan nan nan nan 300 299 297 295 288 285 283 284 292 310 309 306 303 301 301 298 nan nan nan nan nan nan nan nan nan nan nan nan nan nan nan 255 250 247 246
324 327 330 331 333 335 338 340 343 343 342 nan nan nan nan nan nan nan nan nan nan nan 333 338 nan 341 nan nan nan nan nan nan nan nan nan nan nan nan nan nan nan nan nan nan nan nan nan nan nan nan nan nan 297 294 291 289 nan nan nan 309 309 306 nan 300 301 304 299 nan nan nan nan nan nan nan nan nan nan nan nan nan nan nan nan nan nan
321 319 323 328 332 334 337 339 342 342 342 nan nan nan nan nan nan nan nan nan nan nan 336 342 nan nan nan nan nan nan nan nan nan nan nan nan nan nan nan nan nan nan nan nan nan nan nan nan nan nan nan nan nan nan nan nan nan nan nan 308 310 310 305 301 301 301 302 nan nan nan nan nan nan nan nan nan nan nan nan nan nan nan nan nan nan
322 321 323 329 332 334 335 339 342 341 340 nan nan nan nan nan nan nan nan nan nan nan nan nan nan nan nan nan nan nan nan nan nan nan nan nan nan nan nan nan nan nan nan nan nan nan nan nan nan nan nan nan nan nan nan nan nan 306 310 302 316 312 311 307 304 nan 304 304 nan 294 290 nan nan nan 290 nan nan nan nan nan nan nan nan nan nan
325 326 323 327 332 338 338 340 341 340 340 341 nan nan nan nan nan nan nan nan nan nan nan nan nan nan nan nan nan nan nan nan nan nan nan nan nan nan nan nan nan nan nan nan 300 nan nan nan nan nan nan nan nan nan nan nan nan 311 317 nan 308 316 314 311 308 305 307 309 311 311 317 nan nan 313 309 306 295 nan 278 nan nan nan nan nan nan
323 321 318 326 333 335 340 340 341 341 341 341 nan nan nan nan nan nan nan nan nan nan nan nan nan nan nan nan nan nan nan nan nan nan nan nan nan nan nan nan nan nan nan nan nan nan nan nan nan nan nan nan nan nan nan nan nan 313 316 304 nan 312 316 nan nan 310 311 317 323 330 333 333 332 330 325 320 nan 304 288 273 262 255 249 nan nan
315 314 320 325 331 335 341 345 343 342 340 340 nan nan nan nan nan nan nan 337 nan nan nan nan nan nan nan nan nan nan nan nan nan nan nan nan nan nan nan nan nan nan nan nan nan nan nan nan nan nan nan nan nan nan nan nan nan 306 312 301 nan nan 311 315 nan nan nan 320 324 325 327 328 330 330 329 324 321 315 309 300 288 276 266 262 262
310 312 319 326 330 334 339 344 344 343 339 339 nan nan nan nan nan nan nan 336 nan nan nan nan nan nan nan nan nan nan nan nan nan nan nan nan nan nan nan nan nan nan nan nan nan nan nan nan nan nan nan 288 nan nan nan nan nan 298 294 297 nan nan nan nan 308 nan nan 314 315 317 319 323 326 328 330 329 325 318 312 306 299 292 283 273 268
307 308 315 327 331 335 337 341 342 340 340 337 337 nan nan nan nan nan nan nan nan nan nan nan nan nan nan nan nan nan nan nan nan nan nan nan nan nan nan nan nan nan nan nan nan nan nan nan nan nan nan nan nan 289 nan nan nan 285 283 nan nan nan nan nan nan 305 nan nan nan nan nan nan 319 320 321 nan 321 320 319 314 308 302 296 286 279
304 307 314 326 331 334 335 336 336 338 337 338 337 nan nan nan nan nan nan nan nan nan nan nan nan nan nan nan nan nan nan nan nan nan nan nan nan nan nan nan nan nan nan nan nan nan nan nan nan nan nan nan nan nan nan nan 287 283 280 nan nan nan nan nan nan nan nan nan nan nan nan nan nan nan nan nan nan nan nan 318 315 309 301 291 282
302 308 316 327 331 332 332 332 333 334 336 338 338 nan nan nan nan nan nan nan nan nan nan nan nan nan nan nan nan nan nan nan nan nan nan nan nan nan nan nan nan nan nan nan nan nan nan nan nan nan nan nan nan nan nan nan nan 290 282 282 nan 284 282 nan 288 298 nan nan nan nan nan nan nan nan nan nan nan nan nan nan nan nan nan nan nan
299 308 319 328 329 330 331 331 333 334 337 339 339 nan nan nan nan nan nan nan nan nan nan nan nan nan nan nan nan nan nan nan nan nan nan nan nan nan nan nan nan nan nan nan nan nan nan nan nan 303 nan nan 291 nan nan nan nan nan nan nan nan nan nan nan nan nan nan nan nan nan nan nan nan nan nan nan nan nan nan nan nan nan nan nan nan
298 312 322 322 322 326 329 332 334 336 338 340 338 nan nan nan nan nan nan nan nan nan nan nan nan nan nan nan nan nan nan nan nan nan nan nan nan nan nan nan nan nan nan nan nan nan nan nan nan nan 293 nan 297 nan nan nan nan nan nan nan nan nan nan nan nan nan nan nan nan nan nan nan nan nan nan nan nan nan nan nan nan nan nan nan nan
297 312 320 319 321 326 330 333 334 336 338 338 337 338 340 nan nan nan nan nan nan nan nan nan nan nan nan nan nan nan nan nan nan nan nan nan nan nan nan nan nan nan nan nan nan nan 313 312 nan nan 296 nan 298 nan nan nan nan nan nan nan nan nan nan nan nan nan nan nan nan nan nan nan nan nan nan nan nan nan nan nan nan nan nan nan nan
300 311 317 318 319 327 332 334 336 336 336 336 337 339 341 343 nan nan nan nan nan nan nan 341 nan nan nan nan nan nan nan nan nan nan nan nan nan nan nan nan 317 318 nan nan nan nan nan nan nan nan nan nan nan nan nan nan nan nan nan nan nan nan nan nan nan nan nan nan nan nan nan nan nan nan nan nan nan nan nan nan nan nan nan nan nan
299 307 312 313 319 326 332 335 335 336 336 336 338 340 341 342 344 nan nan nan nan nan nan nan 335 nan 332 331 nan nan nan nan nan nan nan nan nan nan nan nan 316 316 312 nan nan nan nan nan nan nan nan nan nan nan nan nan nan nan nan nan nan nan nan nan nan 298 302 306 308 nan nan nan nan nan nan nan nan nan nan nan nan nan nan nan nan
296 305 312 312 319 327 331 332 332 334 333 335 340 342 341 340 341 343 345 345 346 343 337 334 334 332 nan nan nan nan nan nan nan nan nan 316 nan nan 315 316 317 316 315 313 nan nan nan nan nan nan nan nan nan nan nan nan nan nan nan nan nan nan nan nan nan nan 301 303 nan nan nan nan nan nan nan nan nan nan nan nan nan nan nan nan nan
301 303 310 319 319 323 327 327 330 332 332 334 339 340 339 338 340 341 342 343 344 342 nan 331 332 nan nan nan nan nan nan nan nan 320 318 315 314 nan nan 318 318 318 318 316 nan nan nan nan nan nan nan nan nan nan nan nan nan nan nan nan nan nan nan nan nan nan nan nan nan nan nan nan nan nan nan nan nan nan nan nan nan nan nan nan nan
300 307 313 319 316 312 320 325 327 327 329 333 336 336 335 337 338 340 341 341 342 341 333 330 330 330 nan nan nan nan nan nan 322 321 316 315 314 315 315 315 317 319 319 318 317 nan nan nan nan nan nan nan nan nan nan nan nan nan nan nan nan nan nan nan nan nan nan nan nan nan nan nan nan nan nan nan nan nan nan nan nan nan nan nan nan
279 299 304 306 308 313 315 320 322 323 328 333 332 332 332 335 337 339 341 340 340 338 334 330 327 327 326 327 325 nan 323 325 327 322 318 315 313 315 314 313 314 317 319 319 320 317 316 316 316 nan nan nan nan nan nan nan nan nan nan nan nan nan nan nan nan nan nan nan nan nan nan nan nan nan nan nan nan nan nan nan nan nan nan nan nan
278 284 291 299 308 314 316 319 321 325 330 331 333 335 333 333 336 337 339 340 339 336 334 330 328 327 328 326 325 329 331 334 329 326 324 323 321 316 314 312 315 316 317 317 317 316 315 315 316 315 nan nan nan nan nan nan nan nan nan nan nan nan nan nan nan nan nan nan nan nan nan nan nan nan nan nan nan nan nan nan nan nan nan nan nan
276 279 289 305 312 313 319 322 328 331 332 331 332 331 335 340 337 337 338 338 335 335 335 334 331 329 327 327 324 328 331 331 328 328 326 325 324 323 320 318 317 316 314 315 316 314 314 315 313 310 310 nan nan 301 nan nan nan nan nan nan nan nan nan nan nan nan nan nan nan nan nan nan nan nan nan nan nan nan nan nan nan nan nan nan nan
272 276 297 312 314 316 320 326 331 333 332 331 330 332 337 342 339 335 333 332 333 334 335 336 335 330 328 326 325 325 326 327 322 318 321 324 323 320 317 317 319 318 316 315 315 312 312 314 311 311 307 nan 303 nan nan nan nan nan nan nan nan nan nan nan nan nan nan nan nan nan nan nan nan nan nan nan nan nan nan nan nan nan nan nan nan
267 285 305 309 314 320 323 328 332 330 329 329 331 335 339 340 339 335 330 331 331 333 334 336 336 334 330 328 328 327 325 329 322 316 312 313 316 316 315 315 315 316 319 323 320 313 310 310 310 308 307 303 304 nan nan nan nan nan nan nan nan nan nan nan nan nan nan nan nan nan nan nan nan nan nan nan nan nan nan nan nan nan nan nan nan
272 291 302 313 318 322 325 328 328 326 328 326 332 336 339 337 336 335 329 328 330 332 334 334 334 333 331 329 330 330 323 320 320 317 314 315 313 307 304 302 304 308 313 316 317 303 296 299 304 304 301 301 306 305 nan nan nan nan nan nan nan nan nan nan nan nan nan nan nan nan nan nan nan nan nan nan nan nan nan nan nan nan nan nan nan
282 296 308 316 319 320 322 323 323 324 324 324 331 335 336 335 334 331 327 325 325 328 329 330 330 330 329 331 331 330 326 324 322 319 317 315 310 306 304 302 302 303 306 310 302 299 nan 308 303 302 303 304 307 308 nan nan nan nan nan nan nan nan nan nan nan nan nan nan nan nan nan nan nan nan nan nan nan nan nan nan nan nan nan nan nan
275 287 299 309 316 319 320 320 322 322 318 322 330 333 334 332 330 323 320 319 320 322 325 326 327 328 329 330 330 328 326 325 324 325 320 313 309 306 301 297 299 303 307 304 302 307 309 310 308 307 307 309 310 nan nan nan nan nan nan nan nan nan nan nan nan nan nan nan nan nan nan nan nan nan nan nan nan nan nan nan nan nan nan nan nan
283 298 307 311 313 315 317 319 321 317 314 324 331 333 331 330 321 315 313 313 316 319 323 325 326 326 328 329 330 328 325 324 324 324 323 315 306 303 303 307 308 307 307 301 304 309 316 314 313 314 313 nan nan nan nan 305 302 nan nan nan nan nan nan nan nan nan nan nan nan nan nan nan nan nan nan nan nan nan nan nan nan nan nan nan nan
293 302 301 303 306 311 316 319 317 315 317 325 332 332 331 328 325 321 316 314 316 318 321 323 323 324 327 333 329 327 324 323 324 323 322 314 309 308 307 308 308 305 301 298 301 302 306 308 307 302 nan nan nan nan nan nan nan nan nan nan nan nan nan nan nan nan nan nan nan nan nan nan nan nan nan nan nan nan nan nan nan nan nan nan nan
288 286 290 298 300 304 311 313 316 319 319 322 330 330 328 326 329 327 323 318 317 318 319 321 321 323 325 329 330 325 323 323 325 324 322 317 311 309 308 306 305 301 299 297 296 295 295 294 nan nan nan nan nan nan nan nan nan nan nan nan nan nan nan nan nan nan nan nan nan nan nan nan nan nan nan nan nan nan nan nan nan nan nan nan nan